KQ4KX Weather Reports


time (UTC)temp
C
wind
direction
speed
KPH
gust
KPH
rain 1hr
cm
rain 24hr
cm
rain mn
cm
humidity
%
barometer
mb
20260902100528 25 12 1.6 4.8 0.00 0.00 0.00 99 1015.5
20260902100334 25 12 1.6 4.8 0.00 0.00 0.00 99 1015.5
20260902094733 25 23 1.6 3.2 0.00 0.00 0.00 99 1015.5
20260902094234 25 8 1.6 3.2 0.00 0.00 0.00 99 1015.5
20260902093614 33 101 8.0 14.5 0.00 0.84 0.00 70 1017.1
20260902093612 33 104 8.0 14.5 0.00 0.84 0.00 74 1017.2
20260902093133 25 13 1.6 3.2 0.00 0.00 0.00 99 1015.4
20260902092910 25 14 1.6 4.8 0.00 0.00 0.00 99 1015.5
20260902092633 25 14 1.6 4.8 0.00 0.00 0.00 99 1015.5
20260902092103 25 11 1.6 4.8 0.00 0.00 0.00 99 1015.5
20260902091033 25 4 1.6 3.2 0.00 0.00 0.00 99 1015.4
20260902090534 25 5 1.6 3.2 0.00 0.00 0.00 99 1015.3
20260902090139 25 15 1.6 3.2 0.00 0.00 0.00 99 1015.3
20260902090004 25 15 1.6 3.2 0.00 0.00 0.00 99 1015.3
20260902085714 25 25 1.6 4.8 0.00 0.00 0.00 99 1015.2
20260902085433 25 25 1.6 4.8 0.00 0.00 0.00 99 1015.2
20260902083834 25 359 1.6 3.2 0.00 0.00 0.00 98 1015.2
20260902083806 25 1 1.6 3.2 0.00 0.00 0.00 98 1015.3
20260902083333 25 1 1.6 3.2 0.00 0.00 0.00 98 1015.3
20260902082833 25 13 1.6 3.2 0.00 0.00 0.00 98 1015.2
20260902080803 25 9 1.6 3.2 0.00 0.00 0.00 98 1015.2
20260902075548 25 20 1.6 3.2 0.00 0.00 0.00 97 1015.2
20260902075233 25 20 1.6 3.2 0.00 0.00 0.00 97 1015.2
20260902074954 25 31 0.0 3.2 0.00 0.00 0.00 97 1015.3
20260902074733 25 31 0.0 3.2 0.00 0.00 0.00 97 1015.3
20260902072133 25 9 1.6 3.2 0.00 0.00 0.00 98 1015.3
20260902071833 25 27 1.6 3.2 0.00 0.00 0.00 98 1015.4
20260902071633 25 27 1.6 3.2 0.00 0.00 0.00 98 1015.4
20260902071026 25 54 1.6 3.2 0.00 0.00 0.00 98 1015.4
20260902070634 25 54 1.6 3.2 0.00 0.00 0.00 98 1015.4
20260902065913 25 57 1.6 3.2 0.00 0.00 0.00 97 1015.4
20260902065603 25 57 1.6 3.2 0.00 0.00 0.00 97 1015.4
20260902065033 25 57 1.6 3.2 0.00 0.00 0.00 97 1015.5
20260902064533 25 57 1.6 3.2 0.00 0.00 0.00 97 1015.5
20260902064033 25 57 0.0 1.6 0.00 0.00 0.00 97 1015.6
20260902063533 25 57 0.0 1.6 0.00 0.00 0.00 97 1015.6
20260902063003 25 57 0.0 1.6 0.00 0.00 0.00 97 1015.7
20260902062706 25 57 0.0 1.6 0.00 0.00 0.00 97 1015.7
20260902062433 25 57 0.0 1.6 0.00 0.00 0.00 97 1015.7
20260902061933 25 57 0.0 1.6 0.00 0.00 0.00 97 1015.6
20260902061223 25 57 0.0 1.6 0.00 0.00 0.00 97 1015.8
20260902060933 25 57 0.0 1.6 0.00 0.00 0.00 97 1015.8
20260902055333 25 0 0.0 0.0 0.00 0.00 0.00 97 1015.9
20260902054805 25 0 0.0 0.0 0.00 0.00 0.00 97 1015.9
20260902054233 25 0 0.0 0.0 0.00 0.00 0.00 96 1015.9
20260902053733 25 0 0.0 0.0 0.00 0.00 0.00 96 1015.8
20260902052419 25 0 0.0 0.0 0.00 0.00 0.00 96 1016.0
20260902052133 25 0 0.0 0.0 0.00 0.00 0.00 96 1016.0
20260902052006 25 0 0.0 0.0 0.00 0.00 0.00 96 1016.0
20260902051633 25 0 0.0 0.0 0.00 0.00 0.00 96 1016.0
20260902051133 25 0 0.0 0.0 0.00 0.00 0.00 96 1016.0
20260902050451 25 0 0.0 0.0 0.00 0.00 0.00 96 1016.0
20260902050133 25 0 0.0 0.0 0.00 0.00 0.00 96 1016.0
20260902045603 25 0 0.0 0.0 0.00 0.00 0.00 96 1016.0
20260902045103 25 0 0.0 0.0 0.00 0.00 0.00 96 1016.0
20260902044603 25 0 0.0 0.0 0.00 0.00 0.00 96 1016.0
20260902044103 26 57 0.0 1.6 0.00 0.00 0.00 96 1016.1
20260902043533 26 57 0.0 1.6 0.00 0.00 0.00 95 1016.1
20260902043033 26 57 0.0 1.6 0.00 0.00 0.00 95 1016.2
20260902042818 26 0 0.0 0.0 0.00 0.00 0.00 95 1016.1
20260902042503 26 0 0.0 0.0 0.00 0.00 0.00 95 1016.1
20260902042356 26 0 0.0 0.0 0.00 0.00 0.00 94 1016.3
20260902041933 26 0 0.0 0.0 0.00 0.00 0.00 94 1016.3
20260902041744 26 0 0.0 1.6 0.00 0.00 0.00 94 1016.5
20260902041433 26 0 0.0 1.6 0.00 0.00 0.00 94 1016.5
20260902040333 26 57 0.0 1.6 0.00 0.00 0.00 93 1016.3
20260902033733 26 55 1.6 3.2 0.00 0.00 0.00 93 1016.6
20260902033233 26 55 0.0 3.2 0.00 0.00 0.00 93 1016.7
20260902032733 26 55 0.0 1.6 0.00 0.00 0.00 92 1016.6
20260902031903 27 55 0.0 1.6 0.00 0.00 0.00 91 1016.7
20260902031633 27 55 0.0 1.6 0.00 0.00 0.00 91 1016.7
20260902031133 27 56 0.0 3.2 0.00 0.00 0.00 91 1016.7
20260902030603 27 70 1.6 3.2 0.00 0.00 0.00 91 1016.7
20260902030326 27 79 3.2 4.8 0.00 0.00 0.00 91 1016.7
20260902030103 27 79 3.2 4.8 0.00 0.00 0.00 91 1016.7
20260902025533 27 81 3.2 9.7 0.00 0.00 0.00 91 1016.7
20260902025215 27 85 3.2 9.7 0.00 0.00 0.00 90 1016.8
20260902025003 27 85 3.2 9.7 0.00 0.00 0.00 90 1016.8
20260902024810 27 90 4.8 11.3 0.00 0.00 0.00 90 1016.9
20260902024433 27 90 4.8 11.3 0.00 0.00 0.00 90 1016.9
20260902023933 27 89 4.8 11.3 0.00 0.00 0.00 90 1016.9
20260902023721 27 89 4.8 9.7 0.00 0.00 0.00 90 1016.8
20260902023403 27 89 4.8 9.7 0.00 0.00 0.00 90 1016.8
20260902022333 27 82 3.2 12.9 0.00 0.00 0.00 89 1016.7
20260902021233 27 84 6.4 14.5 0.00 0.00 0.00 89 1016.5
20260902020133 27 86 6.4 14.5 0.00 0.00 0.00 89 1016.5
20260902015603 27 91 8.0 14.5 0.00 0.00 0.00 89 1016.5
20260902015033 27 96 9.7 16.1 0.00 0.00 0.00 89 1016.3
20260902014033 27 96 11.3 17.7 0.00 0.00 0.00 89 1016.4
20260902013533 27 93 8.0 17.7 0.00 0.00 0.00 90 1016.5
20260902013003 27 91 8.0 14.5 0.00 0.00 0.00 91 1016.4
20260902012503 27 94 8.0 14.5 0.00 0.00 0.00 91 1016.5
20260902011933 27 90 6.4 14.5 0.00 0.00 0.00 92 1016.4
20260902011433 27 90 4.8 12.9 0.00 0.00 0.00 92 1016.4
20260902005833 27 65 1.6 3.2 0.00 0.00 0.00 93 1016.4
20260902005333 27 65 1.6 3.2 0.00 0.00 0.00 92 1016.4
20260902004833 27 71 1.6 3.2 0.00 0.00 0.00 92 1016.4
20260902003607 27 58 1.6 3.2 0.00 0.00 0.00 92 1016.2
20260902003233 27 58 1.6 3.2 0.00 0.00 0.00 92 1016.2
20260902002733 27 48 1.6 3.2 0.00 0.00 0.00 91 1016.3
20260902002233 27 48 1.6 3.2 0.00 0.00 0.00 90 1016.2
20260902001623 27 63 1.6 3.2 0.00 0.00 0.00 90 1016.1
20260902001233 27 63 1.6 3.2 0.00 0.00 0.00 90 1016.1
20260902000234 27 77 1.6 3.2 0.00 0.00 0.00 90 1016.1
20260901232633 27 53 3.2 4.8 0.00 0.00 0.00 87 1015.8
20260901232133 27 50 3.2 4.8 0.00 0.00 0.00 87 1015.9
20260901231103 28 59 1.6 3.2 0.00 0.00 0.00 86 1015.7
20260901230603 28 54 1.6 3.2 0.00 0.00 0.00 85 1015.6
20260901230033 28 42 1.6 3.2 0.00 0.00 0.00 83 1015.7
20260901225503 28 54 3.2 6.4 0.00 0.00 0.00 83 1015.7
20260901225003 28 54 3.2 6.4 0.00 0.00 0.00 83 1015.6
20260901224808 28 46 3.2 6.4 0.00 0.00 0.00 84 1015.7
20260901224503 28 46 3.2 6.4 0.00 0.00 0.00 84 1015.7
20260901224003 28 44 3.2 6.4 0.00 0.00 0.00 86 1015.7
20260901223433 28 43 1.6 4.8 0.00 0.00 0.00 84 1015.7
20260901222933 29 35 1.6 4.8 0.00 0.00 0.00 84 1015.6
20260901222403 29 35 1.6 4.8 0.00 0.00 0.00 84 1015.7
20260901222138 29 39 1.6 4.8 0.00 0.00 0.00 83 1015.5
20260901221833 29 39 1.6 4.8 0.00 0.00 0.00 83 1015.5
20260901221333 29 44 3.2 4.8 0.00 0.00 0.00 83 1015.4
20260901220552 29 49 3.2 9.7 0.00 0.00 0.00 82 1015.4
20260901220233 29 49 3.2 9.7 0.00 0.00 0.00 82 1015.4
20260901214133 30 28 3.2 6.4 0.00 0.00 0.00 79 1015.4
20260901213820 30 40 3.2 8.0 0.00 0.00 0.00 79 1015.4
20260901213603 30 40 3.2 8.0 0.00 0.00 0.00 79 1015.4
20260901213033 30 68 4.8 14.5 0.00 0.03 0.00 79 1015.4
20260901212503 30 75 4.8 14.5 0.00 0.03 0.00 78 1015.3
20260901212003 30 67 4.8 12.9 0.00 0.03 0.00 80 1015.2
20260901211749 30 67 4.8 11.3 0.00 0.05 0.00 79 1015.2
20260901211503 30 67 4.8 11.3 0.00 0.05 0.00 79 1015.2
20260901211209 30 70 4.8 11.3 0.00 0.08 0.00 80 1015.2
20260901211003 30 70 4.8 11.3 0.00 0.08 0.00 80 1015.2
20260901210433 30 75 8.0 17.7 0.00 0.13 0.00 79 1015.4
20260901205333 31 61 6.4 12.9 0.00 0.18 0.00 76 1015.1
20260901203453 30 81 8.0 24.1 0.00 0.20 0.00 79 1015.1
20260901203233 30 81 8.0 24.1 0.00 0.20 0.00 79 1015.1
20260901202541 31 64 6.4 11.3 0.00 0.23 0.00 78 1015.3
20260901202233 31 64 6.4 11.3 0.00 0.23 0.00 78 1015.3
20260901201941 30 67 6.4 16.1 0.00 0.25 0.00 77 1015.4
20260901201733 30 67 6.4 16.1 0.00 0.25 0.00 77 1015.4
20260901200816 30 53 4.8 9.7 0.00 0.30 0.00 77 1015.5
20260901200633 30 53 4.8 9.7 0.00 0.30 0.00 77 1015.5
20260901200411 30 66 4.8 11.3 0.00 0.33 0.00 80 1015.5
20260901195749 30 74 6.4 14.5 0.00 0.38 0.00 83 1015.5
20260901195603 30 74 6.4 14.5 0.00 0.38 0.00 83 1015.5
20260901193623 29 70 1.6 12.9 0.00 0.38 0.00 84 1015.7
20260901193403 29 70 1.6 12.9 0.00 0.38 0.00 84 1015.7
20260901193111 29 55 1.6 4.8 0.00 0.38 0.00 83 1015.6
20260901192903 29 55 1.6 4.8 0.00 0.38 0.00 83 1015.6
20260901192333 28 83 4.8 12.9 0.00 0.38 0.00 84 1015.8
20260901191833 28 84 4.8 12.9 0.00 0.38 0.00 84 1015.8
20260901191333 29 81 4.8 11.3 0.00 0.38 0.00 84 1015.9
20260901184538 29 327 1.6 4.8 0.00 0.38 0.00 84 1016.2
20260901184233 29 327 1.6 4.8 0.00 0.38 0.00 84 1016.2
20260901183733 30 327 1.6 4.8 0.00 0.38 0.00 83 1016.2
20260901181803 30 18 1.6 6.4 0.00 0.38 0.00 84 1016.6
20260901181603 30 18 1.6 6.4 0.00 0.38 0.00 84 1016.6
20260901181226 30 16 3.2 6.4 0.00 0.38 0.00 85 1016.7
20260901181033 30 16 3.2 6.4 0.00 0.38 0.00 85 1016.7
20260901180744 30 350 3.2 4.8 0.00 0.38 0.00 86 1016.7
20260901180533 30 350 3.2 4.8 0.00 0.38 0.00 86 1016.7
20260901180208 29 348 3.2 4.8 0.00 0.38 0.00 84 1016.8
20260901180003 29 348 3.2 4.8 0.00 0.38 0.00 84 1016.8
20260901175503 29 349 1.6 4.8 0.00 0.38 0.00 82 1016.9
20260901175310 29 330 1.6 4.8 0.00 0.38 0.00 82 1016.9
20260901175003 29 330 1.6 4.8 0.00 0.38 0.00 82 1016.9
20260901174809 28 318 1.6 4.8 0.00 0.38 0.00 81 1016.8
20260901174503 28 318 1.6 4.8 0.00 0.38 0.00 81 1016.8
20260901174004 28 320 1.6 4.8 0.00 0.38 0.00 82 1016.9
20260901172933 28 7 3.2 4.8 0.00 0.38 0.00 82 1017.2
20260901172710 28 5 3.2 6.4 0.00 0.38 0.00 83 1017.3
20260901172433 28 5 3.2 6.4 0.00 0.38 0.00 83 1017.3
20260901171933 28 357 3.2 6.4 0.00 0.38 0.00 83 1017.3
20260901171701 28 352 3.2 6.4 0.00 0.38 0.00 86 1017.4
20260901171433 28 352 3.2 6.4 0.00 0.38 0.00 86 1017.4
20260901171208 28 359 3.2 6.4 0.00 0.38 0.00 86 1017.4
20260901170903 28 359 3.2 6.4 0.00 0.38 0.00 86 1017.4
20260901170333 28 25 4.8 6.4 0.00 0.38 0.00 85 1017.6
20260901170028 29 38 3.2 6.4 0.00 0.38 0.00 85 1017.5
20260901165833 29 38 3.2 6.4 0.00 0.38 0.00 85 1017.5
20260901165333 29 53 3.2 11.3 0.00 0.38 0.00 85 1017.6
20260901164833 29 60 3.2 11.3 0.00 0.38 0.00 84 1017.7
20260901163233 29 81 8.0 11.3 0.00 0.38 0.00 88 1017.7
20260901161632 29 80 8.0 20.9 0.00 0.38 0.00 87 1017.6
20260901160133 30 75 3.2 6.4 0.00 0.38 0.00 79 1017.6
20260901154102 31 64 1.6 4.8 0.00 0.38 0.00 79 1017.6
20260901153602 31 85 3.2 6.4 0.00 0.38 0.00 80 1017.6
20260901153302 31 92 3.2 6.4 0.00 0.38 0.00 79 1017.7
20260901153033 31 92 3.2 6.4 0.00 0.38 0.00 79 1017.7
20260901152502 31 74 1.6 6.4 0.00 0.38 0.00 81 1017.8
20260901152002 31 325 1.6 3.2 0.00 0.38 0.00 81 1017.8
20260901151747 30 346 1.6 4.8 0.00 0.38 0.00 80 1017.7
20260901151432 30 346 1.6 4.8 0.00 0.38 0.00 80 1017.7
20260901151138 30 9 3.2 6.4 0.00 0.38 0.00 82 1017.7
20260901150902 30 9 3.2 6.4 0.00 0.38 0.00 82 1017.7
20260901150402 30 31 3.2 6.4 0.00 0.38 0.00 85 1017.6
20260901145902 30 35 3.2 6.4 0.00 0.38 0.00 84 1017.7
20260901145754 30 56 3.2 6.4 0.00 0.38 0.00 86 1017.7
20260901145403 30 56 3.2 6.4 0.00 0.38 0.00 86 1017.7
20260901145139 30 60 1.6 4.8 0.00 0.38 0.00 87 1017.7
20260901144833 30 60 1.6 4.8 0.00 0.38 0.00 87 1017.7
20260901144332 29 43 1.6 4.8 0.00 0.38 0.00 88 1017.7
20260901143803 28 67 1.6 4.8 0.00 0.38 0.00 89 1017.7
20260901142732 28 46 1.6 4.8 0.00 0.38 0.00 94 1017.5
20260901142202 27 55 1.6 3.2 0.00 0.38 0.00 95 1017.5
20260901141132 27 77 1.6 3.2 0.00 0.38 0.00 95 1017.6
20260901140602 27 80 1.6 4.8 0.00 0.38 0.00 95 1017.5
20260901135032 26 88 3.2 6.4 0.00 0.38 0.00 97 1017.4
20260901134808 26 93 3.2 6.4 0.00 0.38 0.00 98 1017.3
20260901134533 26 93 3.2 6.4 0.00 0.38 0.00 98 1017.3
20260901134002 26 91 3.2 6.4 0.00 0.38 0.00 98 1017.4
20260901133432 26 90 3.2 4.8 0.00 0.38 0.00 99 1017.3
20260901132932 26 84 3.2 4.8 0.00 0.38 0.00 99 1017.1
20260901132402 26 75 1.6 4.8 0.00 0.38 0.00 99 1017.3
20260901131832 26 86 3.2 6.4 0.00 0.38 0.00 100 1017.1
20260901130233 26 63 1.6 4.8 0.00 0.38 0.00 100 1017.1
20260901125703 25 62 1.6 3.2 0.00 0.38 0.00 100 1017.1
20260901124103 25 37 1.6 3.2 0.00 0.38 0.00 100 1017.0
20260901123804 25 37 1.6 1.6 0.00 0.38 0.00 100 1017.0
20260901123602 25 37 1.6 1.6 0.00 0.38 0.00 100 1017.0
20260901122532 25 37 0.0 1.6 0.00 0.38 0.00 100 1017.0
20260901121718 25 37 0.0 3.2 0.00 0.38 0.00 100 1016.9
20260901121502 25 37 0.0 3.2 0.00 0.38 0.00 100 1016.9
20260901120708 25 0 0.0 0.0 0.00 0.38 0.00 100 1016.8
20260901120432 25 0 0.0 0.0 0.00 0.38 0.00 100 1016.8
20260901115902 25 0 0.0 0.0 0.00 0.38 0.00 100 1016.9
20260901115708 25 37 0.0 1.6 0.00 0.38 0.00 100 1016.8
20260901115402 25 37 0.0 1.6 0.00 0.38 0.00 100 1016.8
20260901115214 25 37 0.0 1.6 0.00 0.38 0.00 100 1016.8
20260901114902 25 37 0.0 1.6 0.00 0.38 0.00 100 1016.8
20260901114333 25 37 0.0 1.6 0.00 0.38 0.00 100 1016.7
20260901113803 25 37 0.0 1.6 0.00 0.38 0.00 100 1016.5
20260901111703 24 37 0.0 1.6 0.00 0.38 0.00 100 1016.5
20260901110728 24 37 0.0 3.2 0.00 0.38 0.00 100 1016.4
20260901110603 24 37 0.0 3.2 0.00 0.38 0.00 100 1016.4
20260901105603 25 37 1.6 3.2 0.00 0.38 0.00 100 1016.5
20260901104534 25 37 1.6 1.6 0.00 0.38 0.00 100 1016.3
20260901104256 25 37 1.6 3.2 0.00 0.38 0.00 100 1016.2
20260901104003 25 37 1.6 3.2 0.00 0.38 0.00 100 1016.2
20260901103502 25 37 1.6 3.2 0.00 0.38 0.00 100 1016.1
20260901103325 25 37 1.6 3.2 0.00 0.38 0.00 100 1016.2
20260901103003 25 37 1.6 3.2 0.00 0.38 0.00 100 1016.2
20260901102432 25 37 1.6 3.2 0.00 0.38 0.00 100 1016.2
20260901101933 25 37 0.0 1.6 0.00 0.38 0.00 100 1016.1
20260901101344 25 37 1.6 3.2 0.00 0.38 0.00 100 1016.0